Location: La Pernelle
(49.6188°N, 1.2999°W)
Time: 03:51:24
(UTC+00:00)

NOSS 3-2 (A) - Pass Details

Date: 23 October 2021
Orbit: 771 x 1437 km, 63.4° (Epoch: 21 November)

Event Time Altitude Azimuth Distance (km) Brightness Sun altitude
Rises 22:30:34 0° 315° (NW) 3,984 7.3 -48.8°
Reaches altitude 10° 22:33:16 10° 308° (NW) 3,114 6.6 -49.0°
Enters shadow 22:35:14 19° 300° (WNW) 2,544 5.9 -49.1°
